Location: El Atico
(3.0014°N, 75.4378°W)
Time: 12:28:40
(UTC+00:00)

NOSS 3-1 (C) - Pass Details

Date: 09 December 2025
Orbit: 618 x 1583 km, 63.4° (Epoch: 10 January)

Event Time Altitude Azimuth Distance (km) Brightness Sun altitude
Rises 23:38:48 0° 194° (SSW) 3,084 6.7 -11.4°
Reaches altitude 10° 23:41:18 10° 188° (S) 2,083 5.7 -12.0°
Maximum altitude 23:45:42 47° 114° (ESE) 822 2.9 -13.0°
Enters shadow 23:48:33 19° 46° (NE) 1,471 3.9 -13.6°
